TimeEDT,TemperatureF,Dew PointF,Humidity,Sea Level PressureIn,VisibilityMPH,Wind Direction,Wind SpeedMPH,Gust SpeedMPH,PrecipitationIn,Events,Conditions,WindDirDegrees,DateUTC
12:54 AM,59.0,46.9,64,29.96,10.0,Calm,Calm,-,N/A,,Clear,0,2013-09-25 04:54:00
1:54 AM,57.9,46.9,67,29.97,10.0,NNW,3.5,-,N/A,,Clear,330,2013-09-25 05:54:00
2:54 AM,55.9,46.9,72,29.97,10.0,NW,4.6,-,N/A,,Clear,320,2013-09-25 06:54:00
3:54 AM,55.0,44.1,67,29.96,10.0,North,5.8,-,N/A,,Clear,350,2013-09-25 07:54:00
4:54 AM,54.0,42.1,64,29.96,10.0,North,5.8,-,N/A,,Partly Cloudy,350,2013-09-25 08:54:00
5:54 AM,53.1,42.1,66,29.97,10.0,Calm,Calm,-,N/A,,Mostly Cloudy,0,2013-09-25 09:54:00
6:54 AM,52.0,42.1,69,29.96,10.0,North,4.6,-,N/A,,Mostly Cloudy,350,2013-09-25 10:54:00
7:54 AM,54.0,43.0,66,29.97,10.0,North,5.8,-,N/A,,Mostly Cloudy,360,2013-09-25 11:54:00
8:54 AM,57.0,44.1,62,29.98,10.0,North,5.8,-,N/A,,Mostly Cloudy,360,2013-09-25 12:54:00
9:54 AM,62.1,45.0,53,29.98,10.0,Variable,6.9,-,N/A,,Mostly Cloudy,0,2013-09-25 13:54:00
10:54 AM,64.0,45.0,50,29.99,10.0,East,5.8,-,N/A,,Mostly Cloudy,80,2013-09-25 14:54:00
11:54 AM,68.0,44.1,42,29.98,10.0,Calm,Calm,-,N/A,,Mostly Cloudy,0,2013-09-25 15:54:00
12:54 PM,70.0,45.0,41,29.96,10.0,Calm,Calm,-,N/A,,Mostly Cloudy,0,2013-09-25 16:54:00
1:54 PM,71.1,45.0,39,29.93,10.0,WNW,4.6,-,N/A,,Mostly Cloudy,290,2013-09-25 17:54:00
2:54 PM,73.0,42.1,33,29.91,10.0,NW,5.8,-,N/A,,Mostly Cloudy,310,2013-09-25 18:54:00
3:54 PM,73.0,41.0,31,29.90,10.0,NW,5.8,-,N/A,,Scattered Clouds,320,2013-09-25 19:54:00
4:54 PM,73.9,43.0,33,29.89,10.0,Variable,4.6,-,N/A,,Scattered Clouds,0,2013-09-25 20:54:00
5:54 PM,73.0,43.0,34,29.89,10.0,Calm,Calm,-,N/A,,Scattered Clouds,0,2013-09-25 21:54:00
6:54 PM,71.1,43.0,36,29.90,10.0,NNW,4.6,-,N/A,,Scattered Clouds,330,2013-09-25 22:54:00
7:54 PM,69.1,42.1,38,29.91,10.0,NNE,3.5,-,N/A,,Mostly Cloudy,20,2013-09-25 23:54:00
8:54 PM,64.0,50.0,60,29.92,10.0,East,3.5,-,N/A,,Mostly Cloudy,100,2013-09-26 00:54:00
9:54 PM,62.1,48.9,62,29.93,10.0,Calm,Calm,-,N/A,,Mostly Cloudy,0,2013-09-26 01:54:00
10:54 PM,59.0,52.0,78,29.95,10.0,Calm,Calm,-,N/A,,Mostly Cloudy,0,2013-09-26 02:54:00
11:54 PM,57.9,52.0,81,29.96,10.0,Calm,Calm,-,N/A,,Mostly Cloudy,0,2013-09-26 03:54:00